Location: Proctor
(47.8934°N, 114.3048°W)
Time: 11:17:45
(UTC+00:00)

Transit 4A - Pass Details

Date: 30 June 2024
Orbit: 870 x 973 km, 66.8° (Epoch: 13 July)

Event Time Altitude Azimuth Distance (km) Brightness Sun altitude
Rises 04:17:48 0° 208° (SSW) 3,456 10.7 -5.6°
Reaches altitude 10° 04:20:16 10° 208° (SSW) 2,516 10.0 -5.9°
Maximum altitude 04:26:04 80° 122° (ESE) 888 7.8 -6.6°
Drops below altitude 10° 04:31:55 10° 36° (NE) 2,533 10.3 -7.3°
Sets 04:34:25 0° 36° (NE) 3,482 11.1 -7.6°
